Flag for Germany Weather past 2 weeks in Rodgau, Hesse, Germany

Now
68 °F

Overcast.


Feels Like: 68 °F
Forecast: 56 / 69 °F
Wind: 10 mph from West

Location: Frankfurt / M-Flughafen

Current Time: Jul 28, 2015 at 1:24:33 PM

Latest Report: Jul 28, 2015 at 1:00 PM


Visibility: 37 mi

Pressure: 29.78 "Hg

Humidity: 37%

Dew point: 41 °F

Location of RodgauLocation

Historic Weather in Rodgau — Graph

°F

Rodgau temperature yesterday

Maximum temperature yesterday: 72 °F (at 5:00 PM)
Minimum temperature yesterday: 57 °F (at 1:00 AM)
Average temperature yesterday: 64 °F

Past Weeks' High & Low Weather Summary

 TemperatureHumidityPressure
High95 °F (Jul 17, 6:00 PM)98% (Jul 18, 4:00 AM)30.14 "Hg (Jul 18, 4:00 AM)
Low51 °F (Jul 26, 7:00 AM)23% (Jul 17, 4:00 PM)29.63 "Hg (Jul 27, 8:00 AM)
Average73 °F61%29.92 "Hg
* Reported Jul 13 12:00 Noon — Jul 28 12:00 Noon, Rodgau, Weather by CustomWeather, © 2015

Note: Actual official high and low records may vary slightly from our data, if they occured in-between our weather recording intervals... More about our weather records

Advertising

Rodgau weather history for previous 24 hours

 ConditionsComfort  
Time TempWeatherWind HumidityBarometerVisibility
12:00 PM
Tue, Jul 28
67 °FOvercast.13 mph40%29.78 "Hg37 mi
10:00 AM64 °FScattered clouds.12 mph49%29.80 "Hg34 mi
9:00 AM62 °FPartly sunny.12 mph59%29.78 "Hg31 mi
8:00 AM62 °FPartly sunny.7 mph68%29.77 "Hg34 mi
7:00 AM60 °FPartly sunny.8 mph65%29.77 "Hg34 mi
6:00 AM60 °FPartly sunny.3 mph84%29.74 "Hg31 mi
5:00 AM60 °FOvercast.5 mph87%29.74 "Hg28 mi
4:00 AM61 °FSprinkles. Overcast.7 mph80%29.73 "Hg9 mi
3:00 AM65 °FOvercast.6 mph62%29.72 "Hg31 mi
2:00 AM64 °FOvercast.5 mph66%29.72 "Hg34 mi
1:00 AM63 °FMild.6 mph68%29.72 "HgN/A
10:00 PM
Mon, Jul 27
68 °FPassing clouds.6 mph56%29.71 "Hg37 mi
9:00 PM68 °FPartly sunny.7 mph58%29.71 "Hg34 mi
8:00 PM69 °FPartly sunny.9 mph59%29.70 "Hg31 mi
7:00 PM69 °FPartly sunny.12 mph56%29.69 "Hg31 mi
6:00 PM66 °FPartly sunny.13 mph76%29.70 "Hg19 mi
5:00 PM72 °FPartly sunny.8 mph50%29.68 "Hg16 mi
4:00 PM67 °FSprinkles. Overcast.15 mph63%29.70 "Hg16 mi
3:00 PM68 °FPartly sunny.16 mph58%29.69 "Hg12 mi
2:00 PM68 °FOvercast.13 mph60%29.68 "Hg31 mi
1:00 PM69 °FPartly sunny.12 mph58%29.67 "Hg31 mi
Weather by CustomWeather, © 2015

See weather overviewHow to use our weather pages